Location: Lafig�re
(44.4503°N, 4.0357°E)
Time: 09:56:18
(UTC+00:00)

Cosmos 2150 Rocket - Pass Details

Date: 20 January 2021
Orbit: 748 x 808 km, 74.0° (Epoch: 07 March)

Event Time Altitude Azimuth Distance (km) Brightness Sun altitude
Exits shadow 05:03:44 - 352° (N) 3,038 7.0 -22.9°
Reaches altitude 10° 05:05:59 10° 5° (N) 2,338 6.5 -22.5°
Maximum altitude 05:10:04 22° 55° (NE) 1,668 6.3 -21.8°
Drops below altitude 10° 05:14:11 10° 105° (ESE) 2,358 7.7 -21.0°
Sets 05:17:07 0° 121° (ESE) 3,293 8.5 -20.5°
